User: anonymous   Login
Location: Natural Bridges National Monument
(37.6093°N, 109.9767°W)
Time: 22:54:55
(UTC-07:00)
Language:

USA 32 - Orbit

View from above orbital plane
View from above orbital plane
View from above satellite
View from above satellite

Ground track
Ground track

The orbit data is extracted from the following two-line orbital elements,

1 19460U 88078A   16001.24680991 0.00000110  00000-0  39968-4 0    02
2 19460  84.9883 171.3495 0005300  44.5792 315.4207 14.33355437    01
Epoch (UTC): 01 January 2016 05:55:24
Eccentricity: 0.0005300
inclination: 84.9883°
perigee height: 777 km
apogee height: 784 km
right ascension of ascending node: 171.3495°
argument of perigee: 44.5792°
revolutions per day: 14.33355437
mean anomaly at epoch: 315.4207°
orbit number at epoch: 0

The dashed part of the orbit path shows where the satellite is in the earth's shadow,  

DLR